Regional Weather Roundup
Issued by NWS Bismarck, ND

Home | Current Version | Previous Version | Text Only | Print | Product List | Glossary On
Versions: 1 2 3 4 5 6 7 8 9 10 11 12 13 14 15 16 17 18 19 20 21 22 23 24 25 26 27 28 29 30 31 32 33 34 35 36 37 38 39 40 41 42 43 44 45 46 47 48 49 50
000
ASUS43 KBIS 231020
RWRBIS

NWR BROADCAST TEXT
NATIONAL WEATHER SERVICE BISMARCK ND
500 AM CDT THU OCT 23 2014

NOTE: "FAIR" INDICATES FEW OR NO CLOUDS BELOW 12,000 FEET WITH NO
SIGNIFICANT WEATHER AND/OR OBSTRUCTIONS TO VISIBILITY.


CITY           SKY/WX    TMP DP  RH WIND       PRES   REMARKS
WILLISTON      CLEAR     36  31  82 S3        29.85F
MINOT          CLEAR     46  34  62 SW16      29.84R
MINOT AFB      CLEAR     43  35  72 SW13      29.83R
BISMARCK       CLEAR     35  32  88 CALM      29.92S
DICKINSON      CLEAR     43  27  53 S5        29.88F
GARRISON         N/A     41  37  86 W5        29.87S
HETTINGER ARPT CLEAR     29  23  78 CALM      29.94F
JAMESTOWN      CLEAR     42  36  79 W7        29.89S
BEACH            N/A     32  28  86 S3        29.90F
CARRINGTON     FAIR      41  39  93 SW8       29.88S
CROSBY         MIX PCPN  37  36  93 S12       29.82F
HARVEY         FAIR      39  36  87 SW9       29.86R
HAZEN          FAIR      32  30  93 W3        29.91S
LINTON         FAIR      32  32 100 SE5       29.94R
MANDAN         FAIR      41  32  70 SW9       29.92S
OAKES            N/A     34  34 100 S6        29.92S
RUGBY          FAIR      39  36  87 SW8       29.83R
STANLEY          N/A     39  36  87 W5        29.86S
TIOGA          FAIR      37  37 100 CALM      29.87F
$$

CITY           SKY/WX    TMP DP  RH WIND       PRES   REMARKS
GRAND FORKS    CLOUDY    51  46  83 SW7       29.83S
GRAND FORKS AF PTCLDY    49  49  98 SW8       29.83S
DEVILS LAKE    CLEAR     48  36  61 SW9       29.82S
FARGO          CLEAR     45  42  89 S8        29.89S
CANDO          FAIR      39  37  93 SW7       29.83R
CAVALIER       FAIR      50  45  81 SW5       29.80R
GRAFTON        FAIR      45  45 100 SW6       29.81S
GWINNER        SUNNY     41  41 100 SW12      29.93S
LANGDON        FAIR      43  41  93 SW10      29.81S
ROLLA          FAIR      41  41 100 SW8       29.81S
WALHALLA         N/A     52  48  87 SW14G20   29.78S
$$

CITY           SKY/WX    TMP DP  RH WIND       PRES   REMARKS
ABERDEEN       CLEAR     36  34  92 S9        29.95S
MOBRIDGE       CLEAR     37  32  82 E5        29.92F
BUFFALO          N/A     40  28  62 W8        29.88F
RAPID CITY     CLEAR     35  27  72 CALM      29.98F
GLASGOW        CLEAR     37  33  85 SE12      29.80F
SIDNEY         CLEAR     36  30  80 S8        29.88S
WOLF POINT     CLEAR     30  26  85 CALM      29.84F
GLENDIVE       CLEAR     32  27  80 S8        29.89S
MILES CITY     CLEAR     38  27  64 SE9       29.91S
BAKER          CLEAR     43  28  55 W9        29.91F
$$

CITY           SKY/WX    TMP DP  RH WIND       PRES   REMARKS
BILLINGS       MOCLDY    46  23  40 S9        29.91F
GREAT FALLS    CLOUDY    50  32  50 S14       29.81S
REGINA         CLEAR     34  32  93 E6        29.76F
ESTEVAN        PTCLDY    36  32  87 SW8       29.80F
$$




USA.gov is the U.S. government's official web portal to all federal, state and local government web resources and services.